owner,sensor,date,latitude,longitude,vertical_datum,sea_water_practical_salinity,qcFlag 
DISL,ioos:station:DISL:MHPA:1,2019-09-01T00:00:00Z,30.6671,-87.9365,1.266,0.95,11111222 
DISL,ioos:station:DISL:MHPA:1,2019-09-01T01:00:00Z,30.6671,-87.9365,1.207,1.0,11111222 
DISL,ioos:station:DISL:MHPA:1,2019-09-01T02:00:00Z,30.6671,-87.9365,1.152,1.03,11111222 
DISL,ioos:station:DISL:MHPA:1,2019-09-01T03:00:00Z,30.6671,-87.9365,1.135,1.06,11111222 
DISL,ioos:station:DISL:MHPA:1,2019-09-01T04:00:00Z,30.6671,-87.9365,1.103,0.99,11111222 
DISL,ioos:station:DISL:MHPA:1,2019-09-01T05:00:00Z,30.6671,-87.9365,1.097,0.98,11111222 
DISL,ioos:station:DISL:MHPA:1,2019-09-01T06:00:00Z,30.6671,-87.9365,1.081,0.96,11111222 
DISL,ioos:station:DISL:MHPA:1,2019-09-01T07:00:00Z,30.6671,-87.9365,1.129,0.9,11111222 
DISL,ioos:station:DISL:MHPA:1,2019-09-01T08:00:00Z,30.6671,-87.9365,1.208,0.81,11111222 
DISL,ioos:station:DISL:MHPA:1,2019-09-01T09:00:00Z,30.6671,-87.9365,1.242,0.98,11111222 
DISL,ioos:station:DISL:MHPA:1,2019-09-01T10:00:00Z,30.6671,-87.9365,1.273,0.94,11111222 
DISL,ioos:station:DISL:MHPA:1,2019-09-01T11:00:00Z,30.6671,-87.9365,1.286,0.84,11111222 
DISL,ioos:station:DISL:MHPA:1,2019-09-01T12:00:00Z,30.6671,-87.9365,1.294,0.88,11111222 
DISL,ioos:station:DISL:MHPA:1,2019-09-01T13:00:00Z,30.6671,-87.9365,1.294,0.87,11111222 
DISL,ioos:station:DISL:MHPA:1,2019-09-01T14:00:00Z,30.6671,-87.9365,1.295,0.86,11111222 
DISL,ioos:station:DISL:MHPA:1,2019-09-01T15:00:00Z,30.6671,-87.9365,1.311,0.83,11111222 
DISL,ioos:station:DISL:MHPA:1,2019-09-01T16:00:00Z,30.6671,-87.9365,1.331,0.88,11111222 
DISL,ioos:station:DISL:MHPA:1,2019-09-01T17:00:00Z,30.6671,-87.9365,1.381,0.83,11111222 
DISL,ioos:station:DISL:MHPA:1,2019-09-01T18:00:00Z,30.6671,-87.9365,1.421,0.79,11111222 
DISL,ioos:station:DISL:MHPA:1,2019-09-01T19:00:00Z,30.6671,-87.9365,1.501,0.81,11111222 
DISL,ioos:station:DISL:MHPA:1,2019-09-01T20:00:00Z,30.6671,-87.9365,1.485,0.82,11111222 
DISL,ioos:station:DISL:MHPA:1,2019-09-01T21:00:00Z,30.6671,-87.9365,1.471,0.95,11111222 
DISL,ioos:station:DISL:MHPA:1,2019-09-01T22:00:00Z,30.6671,-87.9365,1.453,0.91,11111222 
DISL,ioos:station:DISL:MHPA:1,2019-09-01T23:00:00Z,30.6671,-87.9365,1.403,0.86,11111222 
DISL,ioos:station:DISL:MHPA:1,2019-09-02T00:00:00Z,30.6671,-87.9365,1.343,0.84,11111222 
DISL,ioos:station:DISL:MHPA:1,2019-09-02T01:00:00Z,30.6671,-87.9365,1.275,0.81,11111222 
DISL,ioos:station:DISL:MHPA:1,2019-09-02T02:00:00Z,30.6671,-87.9365,1.21,0.93,11111222 
DISL,ioos:station:DISL:MHPA:1,2019-09-02T03:00:00Z,30.6671,-87.9365,1.169,0.94,11111222 
DISL,ioos:station:DISL:MHPA:1,2019-09-02T04:00:00Z,30.6671,-87.9365,1.147,0.9,11111222 
DISL,ioos:station:DISL:MHPA:1,2019-09-02T05:00:00Z,30.6671,-87.9365,1.15,0.98,11111222 
DISL,ioos:station:DISL:MHPA:1,2019-09-02T06:00:00Z,30.6671,-87.9365,1.165,0.94,11111222 
DISL,ioos:station:DISL:MHPA:1,2019-09-02T07:00:00Z,30.6671,-87.9365,1.172,0.82,11111222 
DISL,ioos:station:DISL:MHPA:1,2019-09-02T08:00:00Z,30.6671,-87.9365,1.185,0.8,11111222 
DISL,ioos:station:DISL:MHPA:1,2019-09-02T09:00:00Z,30.6671,-87.9365,1.247,0.89,11111222 
DISL,ioos:station:DISL:MHPA:1,2019-09-02T10:00:00Z,30.6671,-87.9365,1.278,0.9,11111222 
DISL,ioos:station:DISL:MHPA:1,2019-09-02T11:00:00Z,30.6671,-87.9365,1.291,0.87,11111222 
DISL,ioos:station:DISL:MHPA:1,2019-09-02T12:00:00Z,30.6671,-87.9365,1.239,0.85,11111222 
DISL,ioos:station:DISL:MHPA:1,2019-09-02T13:00:00Z,30.6671,-87.9365,1.195,0.87,11111222 
DISL,ioos:station:DISL:MHPA:1,2019-09-02T16:00:00Z,30.6671,-87.9365,1.159,0.75,11111222 
DISL,ioos:station:DISL:MHPA:1,2019-09-02T17:00:00Z,30.6671,-87.9365,1.146,0.83,11111222 
DISL,ioos:station:DISL:MHPA:1,2019-09-02T18:00:00Z,30.6671,-87.9365,1.208,0.77,11111222 
DISL,ioos:station:DISL:MHPA:1,2019-09-02T19:00:00Z,30.6671,-87.9365,1.34,0.74,11111222 
DISL,ioos:station:DISL:MHPA:1,2019-09-02T20:00:00Z,30.6671,-87.9365,1.372,0.78,11111222 
DISL,ioos:station:DISL:MHPA:1,2019-09-02T21:00:00Z,30.6671,-87.9365,1.281,0.82,11111222 
DISL,ioos:station:DISL:MHPA:1,2019-09-02T22:00:00Z,30.6671,-87.9365,1.357,0.92,11111222 
DISL,ioos:station:DISL:MHPA:1,2019-09-02T23:00:00Z,30.6671,-87.9365,1.267,0.81,11111222 
DISL,ioos:station:DISL:MHPA:1,2019-09-03T00:00:00Z,30.6671,-87.9365,1.244,0.81,11111222 
DISL,ioos:station:DISL:MHPA:1,2019-09-03T01:00:00Z,30.6671,-87.9365,1.202,0.81,11111222 
DISL,ioos:station:DISL:MHPA:1,2019-09-03T02:00:00Z,30.6671,-87.9365,1.186,0.81,11111222 
DISL,ioos:station:DISL:MHPA:1,2019-09-03T03:00:00Z,30.6671,-87.9365,1.158,0.88,11111222 
DISL,ioos:station:DISL:MHPA:1,2019-09-03T04:00:00Z,30.6671,-87.9365,1.143,0.86,11111222 
DISL,ioos:station:DISL:MHPA:1,2019-09-03T05:00:00Z,30.6671,-87.9365,1.143,0.84,11111222 
DISL,ioos:station:DISL:MHPA:1,2019-09-03T06:00:00Z,30.6671,-87.9365,1.182,0.83,11111222 
DISL,ioos:station:DISL:MHPA:1,2019-09-03T07:00:00Z,30.6671,-87.9365,1.226,0.81,11111222 
DISL,ioos:station:DISL:MHPA:1,2019-09-03T08:00:00Z,30.6671,-87.9365,1.256,0.79,11111222 
DISL,ioos:station:DISL:MHPA:1,2019-09-03T09:00:00Z,30.6671,-87.9365,1.261,0.81,11111222 
DISL,ioos:station:DISL:MHPA:1,2019-09-03T10:00:00Z,30.6671,-87.9365,1.286,0.81,11111222 
DISL,ioos:station:DISL:MHPA:1,2019-09-03T11:00:00Z,30.6671,-87.9365,1.256,0.78,11111222 
DISL,ioos:station:DISL:MHPA:1,2019-09-03T12:00:00Z,30.6671,-87.9365,1.248,0.78,11111222 
DISL,ioos:station:DISL:MHPA:1,2019-09-03T13:00:00Z,30.6671,-87.9365,1.17,0.76,11111222 
DISL,ioos:station:DISL:MHPA:1,2019-09-03T14:00:00Z,30.6671,-87.9365,1.137,0.77,11111222 
DISL,ioos:station:DISL:MHPA:1,2019-09-03T15:00:00Z,30.6671,-87.9365,1.103,0.74,11111222 
DISL,ioos:station:DISL:MHPA:1,2019-09-03T16:00:00Z,30.6671,-87.9365,1.005,0.71,11111222 
DISL,ioos:station:DISL:MHPA:1,2019-09-03T17:00:00Z,30.6671,-87.9365,1.005,0.8,11111222 
DISL,ioos:station:DISL:MHPA:1,2019-09-03T18:00:00Z,30.6671,-87.9365,0.972,0.79,11111222 
DISL,ioos:station:DISL:MHPA:1,2019-09-03T19:00:00Z,30.6671,-87.9365,1.01,0.73,11111222 
DISL,ioos:station:DISL:MHPA:1,2019-09-03T20:00:00Z,30.6671,-87.9365,1.049,0.73,11111222 
DISL,ioos:station:DISL:MHPA:1,2019-09-03T21:00:00Z,30.6671,-87.9365,1.099,0.79,11111222 
DISL,ioos:station:DISL:MHPA:1,2019-09-03T22:00:00Z,30.6671,-87.9365,1.118,0.74,11111222 
DISL,ioos:station:DISL:MHPA:1,2019-09-03T23:00:00Z,30.6671,-87.9365,1.131,0.73,11111222 
DISL,ioos:station:DISL:MHPA:1,2019-09-04T00:00:00Z,30.6671,-87.9365,1.172,0.77,11111222 
DISL,ioos:station:DISL:MHPA:1,2019-09-04T01:00:00Z,30.6671,-87.9365,1.171,0.78,11111222 
DISL,ioos:station:DISL:MHPA:1,2019-09-04T02:00:00Z,30.6671,-87.9365,1.181,0.79,11111222 
DISL,ioos:station:DISL:MHPA:1,2019-09-04T03:00:00Z,30.6671,-87.9365,1.192,0.84,11111222 
DISL,ioos:station:DISL:MHPA:1,2019-09-04T04:00:00Z,30.6671,-87.9365,1.212,0.8,11111222 
DISL,ioos:station:DISL:MHPA:1,2019-09-04T05:00:00Z,30.6671,-87.9365,1.238,0.83,11111222 
DISL,ioos:station:DISL:MHPA:1,2019-09-04T06:00:00Z,30.6671,-87.9365,1.27,0.83,11111222 
DISL,ioos:station:DISL:MHPA:1,2019-09-04T07:00:00Z,30.6671,-87.9365,1.286,0.9,11111222 
DISL,ioos:station:DISL:MHPA:1,2019-09-04T08:00:00Z,30.6671,-87.9365,1.285,0.97,11111222 
DISL,ioos:station:DISL:MHPA:1,2019-09-04T09:00:00Z,30.6671,-87.9365,1.292,0.92,11111222 
DISL,ioos:station:DISL:MHPA:1,2019-09-04T10:00:00Z,30.6671,-87.9365,1.277,0.89,11111222 
DISL,ioos:station:DISL:MHPA:1,2019-09-04T11:00:00Z,30.6671,-87.9365,1.256,0.95,11111222 
DISL,ioos:station:DISL:MHPA:1,2019-09-04T12:00:00Z,30.6671,-87.9365,1.198,1.08,11111222 
DISL,ioos:station:DISL:MHPA:1,2019-09-04T13:00:00Z,30.6671,-87.9365,1.136,1.04,11111222 
DISL,ioos:station:DISL:MHPA:1,2019-09-04T14:00:00Z,30.6671,-87.9365,1.086,1.17,11111222 
DISL,ioos:station:DISL:MHPA:1,2019-09-04T15:00:00Z,30.6671,-87.9365,1.034,1.08,11111222 
DISL,ioos:station:DISL:MHPA:1,2019-09-04T16:00:00Z,30.6671,-87.9365,0.949,1.0,11111222 
DISL,ioos:station:DISL:MHPA:1,2019-09-04T17:00:00Z,30.6671,-87.9365,0.924,1.02,11111222 
DISL,ioos:station:DISL:MHPA:1,2019-09-04T18:00:00Z,30.6671,-87.9365,0.893,1.09,11111222 
DISL,ioos:station:DISL:MHPA:1,2019-09-04T19:00:00Z,30.6671,-87.9365,0.827,1.09,11111222 
DISL,ioos:station:DISL:MHPA:1,2019-09-04T20:00:00Z,30.6671,-87.9365,0.836,1.08,11111222 
DISL,ioos:station:DISL:MHPA:1,2019-09-04T21:00:00Z,30.6671,-87.9365,0.814,1.11,11111222 
DISL,ioos:station:DISL:MHPA:1,2019-09-04T22:00:00Z,30.6671,-87.9365,0.861,1.07,11111222 
DISL,ioos:station:DISL:MHPA:1,2019-09-04T23:00:00Z,30.6671,-87.9365,0.853,1.1,11111222 
DISL,ioos:station:DISL:MHPA:1,2019-09-05T00:00:00Z,30.6671,-87.9365,0.918,1.03,11111222 
DISL,ioos:station:DISL:MHPA:1,2019-09-05T01:00:00Z,30.6671,-87.9365,0.95,1.0,11111222 
DISL,ioos:station:DISL:MHPA:1,2019-09-05T02:00:00Z,30.6671,-87.9365,0.998,1.03,11111222 
DISL,ioos:station:DISL:MHPA:1,2019-09-05T03:00:00Z,30.6671,-87.9365,1.069,1.02,11111222 
DISL,ioos:station:DISL:MHPA:1,2019-09-05T04:00:00Z,30.6671,-87.9365,1.094,1.04,11111222 
DISL,ioos:station:DISL:MHPA:1,2019-09-05T05:00:00Z,30.6671,-87.9365,1.121,1.05,11111222 
DISL,ioos:station:DISL:MHPA:1,2019-09-05T06:00:00Z,30.6671,-87.9365,1.16,1.06,11111222 
DISL,ioos:station:DISL:MHPA:1,2019-09-05T07:00:00Z,30.6671,-87.9365,1.211,1.11,11111222 
DISL,ioos:station:DISL:MHPA:1,2019-09-05T08:00:00Z,30.6671,-87.9365,1.241,1.1,11111222 
DISL,ioos:station:DISL:MHPA:1,2019-09-05T09:00:00Z,30.6671,-87.9365,1.245,1.06,11111222 
DISL,ioos:station:DISL:MHPA:1,2019-09-05T10:00:00Z,30.6671,-87.9365,1.222,1.09,11111222 
DISL,ioos:station:DISL:MHPA:1,2019-09-05T11:00:00Z,30.6671,-87.9365,1.192,1.2,11111222 
DISL,ioos:station:DISL:MHPA:1,2019-09-05T12:00:00Z,30.6671,-87.9365,1.149,1.3,11111222 
DISL,ioos:station:DISL:MHPA:1,2019-09-05T13:00:00Z,30.6671,-87.9365,1.081,1.33,11111222 
DISL,ioos:station:DISL:MHPA:1,2019-09-05T14:00:00Z,30.6671,-87.9365,1.044,1.38,11111222 
DISL,ioos:station:DISL:MHPA:1,2019-09-05T15:00:00Z,30.6671,-87.9365,0.995,1.31,11111222 
DISL,ioos:station:DISL:MHPA:1,2019-09-05T16:00:00Z,30.6671,-87.9365,0.903,1.3,11111222 
DISL,ioos:station:DISL:MHPA:1,2019-09-05T17:00:00Z,30.6671,-87.9365,0.895,1.3,11111222 
DISL,ioos:station:DISL:MHPA:1,2019-09-05T18:00:00Z,30.6671,-87.9365,0.935,1.35,11111222 
DISL,ioos:station:DISL:MHPA:1,2019-09-05T19:00:00Z,30.6671,-87.9365,0.808,1.36,11111222 
DISL,ioos:station:DISL:MHPA:1,2019-09-05T20:00:00Z,30.6671,-87.9365,0.782,1.27,11111222 
DISL,ioos:station:DISL:MHPA:1,2019-09-05T21:00:00Z,30.6671,-87.9365,0.73,1.28,11111222 
DISL,ioos:station:DISL:MHPA:1,2019-09-05T22:00:00Z,30.6671,-87.9365,0.742,1.28,11111222 
DISL,ioos:station:DISL:MHPA:1,2019-09-05T23:00:00Z,30.6671,-87.9365,0.75,1.43,11111222 
DISL,ioos:station:DISL:MHPA:1,2019-09-06T00:00:00Z,30.6671,-87.9365,0.79,1.38,11111222 
DISL,ioos:station:DISL:MHPA:1,2019-09-06T01:00:00Z,30.6671,-87.9365,0.81,1.37,11111222 
DISL,ioos:station:DISL:MHPA:1,2019-09-06T02:00:00Z,30.6671,-87.9365,0.875,1.35,11111222 
DISL,ioos:station:DISL:MHPA:1,2019-09-06T03:00:00Z,30.6671,-87.9365,0.912,1.33,11111222 
DISL,ioos:station:DISL:MHPA:1,2019-09-06T04:00:00Z,30.6671,-87.9365,0.952,1.35,11111222 
DISL,ioos:station:DISL:MHPA:1,2019-09-06T05:00:00Z,30.6671,-87.9365,0.96,1.35,11111222 
DISL,ioos:station:DISL:MHPA:1,2019-09-06T06:00:00Z,30.6671,-87.9365,0.99,1.37,11111222 
DISL,ioos:station:DISL:MHPA:1,2019-09-06T09:00:00Z,30.6671,-87.9365,1.113,1.36,11111222 
DISL,ioos:station:DISL:MHPA:1,2019-09-06T10:00:00Z,30.6671,-87.9365,1.131,1.33,11111222 
DISL,ioos:station:DISL:MHPA:1,2019-09-06T11:00:00Z,30.6671,-87.9365,1.148,1.35,11111222 
DISL,ioos:station:DISL:MHPA:1,2019-09-06T12:00:00Z,30.6671,-87.9365,1.113,1.37,11111222 
DISL,ioos:station:DISL:MHPA:1,2019-09-06T13:00:00Z,30.6671,-87.9365,1.05,1.44,11111222 
DISL,ioos:station:DISL:MHPA:1,2019-09-06T14:00:00Z,30.6671,-87.9365,1.011,1.57,11111222 
DISL,ioos:station:DISL:MHPA:1,2019-09-06T15:00:00Z,30.6671,-87.9365,0.953,1.51,11111222 
DISL,ioos:station:DISL:MHPA:1,2019-09-06T16:00:00Z,30.6671,-87.9365,0.887,1.45,11111222 
DISL,ioos:station:DISL:MHPA:1,2019-09-06T17:00:00Z,30.6671,-87.9365,0.865,1.53,11111222 
DISL,ioos:station:DISL:MHPA:1,2019-09-06T18:00:00Z,30.6671,-87.9365,0.815,1.53,11111222 
DISL,ioos:station:DISL:MHPA:1,2019-09-06T19:00:00Z,30.6671,-87.9365,0.757,1.51,11111222 
DISL,ioos:station:DISL:MHPA:1,2019-09-06T20:00:00Z,30.6671,-87.9365,0.71,1.48,11111222 
DISL,ioos:station:DISL:MHPA:1,2019-09-06T21:00:00Z,30.6671,-87.9365,0.655,1.52,11111222 
DISL,ioos:station:DISL:MHPA:1,2019-09-06T22:00:00Z,30.6671,-87.9365,0.641,1.51,11111222 
DISL,ioos:station:DISL:MHPA:1,2019-09-06T23:00:00Z,30.6671,-87.9365,0.629,1.48,11111222 
DISL,ioos:station:DISL:MHPA:1,2019-09-07T00:00:00Z,30.6671,-87.9365,0.682,1.48,11111222 
DISL,ioos:station:DISL:MHPA:1,2019-09-07T01:00:00Z,30.6671,-87.9365,0.707,1.48,11111222 
DISL,ioos:station:DISL:MHPA:1,2019-09-07T02:00:00Z,30.6671,-87.9365,0.773,1.49,11111222 
DISL,ioos:station:DISL:MHPA:1,2019-09-07T03:00:00Z,30.6671,-87.9365,0.871,1.5,11111222 
DISL,ioos:station:DISL:MHPA:1,2019-09-07T04:00:00Z,30.6671,-87.9365,0.969,1.5,11111222 
DISL,ioos:station:DISL:MHPA:1,2019-09-07T05:00:00Z,30.6671,-87.9365,1.047,1.51,11111222 
DISL,ioos:station:DISL:MHPA:1,2019-09-07T06:00:00Z,30.6671,-87.9365,1.131,1.52,11111222 
DISL,ioos:station:DISL:MHPA:1,2019-09-07T07:00:00Z,30.6671,-87.9365,1.193,1.53,11111222 
DISL,ioos:station:DISL:MHPA:1,2019-09-07T08:00:00Z,30.6671,-87.9365,1.218,1.53,11111222 
DISL,ioos:station:DISL:MHPA:1,2019-09-07T09:00:00Z,30.6671,-87.9365,1.262,1.54,11111222 
DISL,ioos:station:DISL:MHPA:1,2019-09-07T10:00:00Z,30.6671,-87.9365,1.3,1.54,11111222 
DISL,ioos:station:DISL:MHPA:1,2019-09-07T11:00:00Z,30.6671,-87.9365,1.306,1.54,11111222 
DISL,ioos:station:DISL:MHPA:1,2019-09-07T12:00:00Z,30.6671,-87.9365,1.283,1.56,11111222 
DISL,ioos:station:DISL:MHPA:1,2019-09-07T13:00:00Z,30.6671,-87.9365,1.251,1.57,11111222 
DISL,ioos:station:DISL:MHPA:1,2019-09-07T14:00:00Z,30.6671,-87.9365,1.225,1.57,11111222 
DISL,ioos:station:DISL:MHPA:1,2019-09-07T15:00:00Z,30.6671,-87.9365,1.18,1.62,11111222 
DISL,ioos:station:DISL:MHPA:1,2019-09-07T16:00:00Z,30.6671,-87.9365,1.101,1.61,11111222 
DISL,ioos:station:DISL:MHPA:1,2019-09-07T17:00:00Z,30.6671,-87.9365,1.028,1.64,11111222 
DISL,ioos:station:DISL:MHPA:1,2019-09-07T18:00:00Z,30.6671,-87.9365,1.125,1.6,11111222 
DISL,ioos:station:DISL:MHPA:1,2019-09-07T19:00:00Z,30.6671,-87.9365,0.816,1.65,11111222 
DISL,ioos:station:DISL:MHPA:1,2019-09-07T20:00:00Z,30.6671,-87.9365,0.783,1.66,11111222 
DISL,ioos:station:DISL:MHPA:1,2019-09-07T21:00:00Z,30.6671,-87.9365,0.756,1.7,11111222 
DISL,ioos:station:DISL:MHPA:1,2019-09-07T22:00:00Z,30.6671,-87.9365,0.678,1.75,11111222 
DISL,ioos:station:DISL:MHPA:1,2019-09-07T23:00:00Z,30.6671,-87.9365,0.681,1.77,11111222 
DISL,ioos:station:DISL:MHPA:1,2019-09-08T00:00:00Z,30.6671,-87.9365,0.681,1.56,11111222 
DISL,ioos:station:DISL:MHPA:1,2019-09-08T01:00:00Z,30.6671,-87.9365,0.699,1.63,11111222 
DISL,ioos:station:DISL:MHPA:1,2019-09-08T02:00:00Z,30.6671,-87.9365,0.752,1.68,11111222 
DISL,ioos:station:DISL:MHPA:1,2019-09-08T03:00:00Z,30.6671,-87.9365,0.858,1.73,11111222 
DISL,ioos:station:DISL:MHPA:1,2019-09-08T04:00:00Z,30.6671,-87.9365,0.955,1.73,11111222 
DISL,ioos:station:DISL:MHPA:1,2019-09-08T05:00:00Z,30.6671,-87.9365,1.046,1.72,11111222 
DISL,ioos:station:DISL:MHPA:1,2019-09-08T06:00:00Z,30.6671,-87.9365,1.116,1.69,11111222 
DISL,ioos:station:DISL:MHPA:1,2019-09-08T07:00:00Z,30.6671,-87.9365,1.164,1.75,11111222 
DISL,ioos:station:DISL:MHPA:1,2019-09-08T08:00:00Z,30.6671,-87.9365,1.221,1.75,11111222 
DISL,ioos:station:DISL:MHPA:1,2019-09-08T09:00:00Z,30.6671,-87.9365,1.275,1.77,11111222 
DISL,ioos:station:DISL:MHPA:1,2019-09-08T10:00:00Z,30.6671,-87.9365,1.319,1.79,11111222 
DISL,ioos:station:DISL:MHPA:1,2019-09-08T11:00:00Z,30.6671,-87.9365,1.367,1.8,11111222 
DISL,ioos:station:DISL:MHPA:1,2019-09-08T12:00:00Z,30.6671,-87.9365,1.376,1.76,11111222 
DISL,ioos:station:DISL:MHPA:1,2019-09-08T13:00:00Z,30.6671,-87.9365,1.374,1.77,11111222 
DISL,ioos:station:DISL:MHPA:1,2019-09-08T14:00:00Z,30.6671,-87.9365,1.347,1.78,11111222 
DISL,ioos:station:DISL:MHPA:1,2019-09-08T15:00:00Z,30.6671,-87.9365,1.276,1.88,11111222 
DISL,ioos:station:DISL:MHPA:1,2019-09-08T16:00:00Z,30.6671,-87.9365,1.194,1.94,11111222 
DISL,ioos:station:DISL:MHPA:1,2019-09-08T17:00:00Z,30.6671,-87.9365,1.165,1.88,11111222 
DISL,ioos:station:DISL:MHPA:1,2019-09-08T18:00:00Z,30.6671,-87.9365,1.081,1.96,11111222 
DISL,ioos:station:DISL:MHPA:1,2019-09-08T18:30:00Z,30.6671,-87.9365,1.043,2.02,11111222 
DISL,ioos:station:DISL:MHPA:1,2019-09-08T19:30:00Z,30.6671,-87.9365,0.958,2.06,11111222 
DISL,ioos:station:DISL:MHPA:1,2019-09-08T20:30:00Z,30.6671,-87.9365,0.911,1.9,11111222 
DISL,ioos:station:DISL:MHPA:1,2019-09-08T21:30:00Z,30.6671,-87.9365,0.857,1.7,11111222 
DISL,ioos:station:DISL:MHPA:1,2019-09-08T22:30:00Z,30.6671,-87.9365,0.842,1.7,11111222 
DISL,ioos:station:DISL:MHPA:1,2019-09-08T23:30:00Z,30.6671,-87.9365,0.821,1.73,11111222 
DISL,ioos:station:DISL:MHPA:1,2019-09-09T00:30:00Z,30.6671,-87.9365,0.821,1.85,11111222 
DISL,ioos:station:DISL:MHPA:1,2019-09-09T01:30:00Z,30.6671,-87.9365,0.862,1.81,11111222 
DISL,ioos:station:DISL:MHPA:1,2019-09-09T02:30:00Z,30.6671,-87.9365,0.918,1.89,11111222 
DISL,ioos:station:DISL:MHPA:1,2019-09-09T03:30:00Z,30.6671,-87.9365,0.991,1.87,11111222 
DISL,ioos:station:DISL:MHPA:1,2019-09-09T04:30:00Z,30.6671,-87.9365,1.068,1.95,11111222 
DISL,ioos:station:DISL:MHPA:1,2019-09-09T05:30:00Z,30.6671,-87.9365,1.119,2.0,11111222 
DISL,ioos:station:DISL:MHPA:1,2019-09-09T06:30:00Z,30.6671,-87.9365,1.183,2.09,11111222 
DISL,ioos:station:DISL:MHPA:1,2019-09-09T07:30:00Z,30.6671,-87.9365,1.235,2.0,11111222 
DISL,ioos:station:DISL:MHPA:1,2019-09-09T08:30:00Z,30.6671,-87.9365,1.267,1.93,11111222 
DISL,ioos:station:DISL:MHPA:1,2019-09-09T09:30:00Z,30.6671,-87.9365,1.326,1.94,11111222 
DISL,ioos:station:DISL:MHPA:1,2019-09-09T10:30:00Z,30.6671,-87.9365,1.37,2.0,11111222 
DISL,ioos:station:DISL:MHPA:1,2019-09-09T11:30:00Z,30.6671,-87.9365,1.399,2.1,11111222 
DISL,ioos:station:DISL:MHPA:1,2019-09-09T12:30:00Z,30.6671,-87.9365,1.434,1.91,11111222 
DISL,ioos:station:DISL:MHPA:1,2019-09-09T13:30:00Z,30.6671,-87.9365,1.403,2.22,11111222 
DISL,ioos:station:DISL:MHPA:1,2019-09-09T14:30:00Z,30.6671,-87.9365,1.395,2.25,11111222 
DISL,ioos:station:DISL:MHPA:1,2019-09-09T15:30:00Z,30.6671,-87.9365,1.363,2.18,11111222 
DISL,ioos:station:DISL:MHPA:1,2019-09-09T16:30:00Z,30.6671,-87.9365,1.262,2.36,11111222 
DISL,ioos:station:DISL:MHPA:1,2019-09-09T17:30:00Z,30.6671,-87.9365,1.279,2.34,11111222 
DISL,ioos:station:DISL:MHPA:1,2019-09-09T18:30:00Z,30.6671,-87.9365,1.168,2.24,11111222 
DISL,ioos:station:DISL:MHPA:1,2019-09-09T22:30:00Z,30.6671,-87.9365,0.963,1.94,11111222 
DISL,ioos:station:DISL:MHPA:1,2019-09-09T23:30:00Z,30.6671,-87.9365,0.923,2.09,11111222 
DISL,ioos:station:DISL:MHPA:1,2019-09-10T00:30:00Z,30.6671,-87.9365,0.925,2.08,11111222 
DISL,ioos:station:DISL:MHPA:1,2019-09-10T01:30:00Z,30.6671,-87.9365,0.931,2.1,11111222 
DISL,ioos:station:DISL:MHPA:1,2019-09-10T02:30:00Z,30.6671,-87.9365,0.976,2.11,11111222 
DISL,ioos:station:DISL:MHPA:1,2019-09-10T03:30:00Z,30.6671,-87.9365,1.058,2.12,11111222 
DISL,ioos:station:DISL:MHPA:1,2019-09-10T04:30:00Z,30.6671,-87.9365,1.112,2.39,11111222 
DISL,ioos:station:DISL:MHPA:1,2019-09-10T05:30:00Z,30.6671,-87.9365,1.196,2.27,11111222 
DISL,ioos:station:DISL:MHPA:1,2019-09-10T06:30:00Z,30.6671,-87.9365,1.243,2.19,11111222 
DISL,ioos:station:DISL:MHPA:1,2019-09-10T07:30:00Z,30.6671,-87.9365,1.291,2.2,11111222 
DISL,ioos:station:DISL:MHPA:1,2019-09-10T08:30:00Z,30.6671,-87.9365,1.339,2.27,11111222 
DISL,ioos:station:DISL:MHPA:1,2019-09-10T09:30:00Z,30.6671,-87.9365,1.374,2.3,11111222 
DISL,ioos:station:DISL:MHPA:1,2019-09-10T10:30:00Z,30.6671,-87.9365,1.409,2.33,11111222 
DISL,ioos:station:DISL:MHPA:1,2019-09-10T11:30:00Z,30.6671,-87.9365,1.437,2.38,11111222 
DISL,ioos:station:DISL:MHPA:1,2019-09-10T12:30:00Z,30.6671,-87.9365,1.472,2.51,11111222 
DISL,ioos:station:DISL:MHPA:1,2019-09-10T13:30:00Z,30.6671,-87.9365,1.49,2.56,11111222 
DISL,ioos:station:DISL:MHPA:1,2019-09-10T14:30:00Z,30.6671,-87.9365,1.488,2.55,11111222 
DISL,ioos:station:DISL:MHPA:1,2019-09-10T15:30:00Z,30.6671,-87.9365,1.497,2.45,11111222 
DISL,ioos:station:DISL:MHPA:1,2019-09-10T16:30:00Z,30.6671,-87.9365,1.466,2.3,11111222 
DISL,ioos:station:DISL:MHPA:1,2019-09-10T17:30:00Z,30.6671,-87.9365,1.426,2.49,11111222 
DISL,ioos:station:DISL:MHPA:1,2019-09-10T18:30:00Z,30.6671,-87.9365,1.335,2.87,11111222 
DISL,ioos:station:DISL:MHPA:1,2019-09-10T19:30:00Z,30.6671,-87.9365,1.27,2.35,11111222 
DISL,ioos:station:DISL:MHPA:1,2019-09-10T20:30:00Z,30.6671,-87.9365,1.22,2.3,11111222 
DISL,ioos:station:DISL:MHPA:1,2019-09-10T21:30:00Z,30.6671,-87.9365,1.165,2.3,11111222 
DISL,ioos:station:DISL:MHPA:1,2019-09-10T22:30:00Z,30.6671,-87.9365,1.077,2.3,11111222 
DISL,ioos:station:DISL:MHPA:1,2019-09-10T23:30:00Z,30.6671,-87.9365,1.028,2.58,11111222 
DISL,ioos:station:DISL:MHPA:1,2019-09-11T00:30:00Z,30.6671,-87.9365,1.002,2.29,11111222 
DISL,ioos:station:DISL:MHPA:1,2019-09-11T01:30:00Z,30.6671,-87.9365,0.983,2.33,11111222 
DISL,ioos:station:DISL:MHPA:1,2019-09-11T02:30:00Z,30.6671,-87.9365,0.981,2.68,11111222 
DISL,ioos:station:DISL:MHPA:1,2019-09-11T03:30:00Z,30.6671,-87.9365,1.018,2.59,11111222 
DISL,ioos:station:DISL:MHPA:1,2019-09-11T04:30:00Z,30.6671,-87.9365,1.054,2.59,11111222 
DISL,ioos:station:DISL:MHPA:1,2019-09-11T05:30:00Z,30.6671,-87.9365,1.112,2.58,11111222 
DISL,ioos:station:DISL:MHPA:1,2019-09-11T06:30:00Z,30.6671,-87.9365,1.187,2.56,11111222 
DISL,ioos:station:DISL:MHPA:1,2019-09-11T07:30:00Z,30.6671,-87.9365,1.237,2.57,11111222 
DISL,ioos:station:DISL:MHPA:1,2019-09-11T08:30:00Z,30.6671,-87.9365,1.284,2.69,11111222 
DISL,ioos:station:DISL:MHPA:1,2019-09-11T09:30:00Z,30.6671,-87.9365,1.315,2.73,11111222 
DISL,ioos:station:DISL:MHPA:1,2019-09-11T10:30:00Z,30.6671,-87.9365,1.331,2.73,11111222 
DISL,ioos:station:DISL:MHPA:1,2019-09-11T11:30:00Z,30.6671,-87.9365,1.366,2.71,11111222 
DISL,ioos:station:DISL:MHPA:1,2019-09-11T12:30:00Z,30.6671,-87.9365,1.387,2.77,11111222 
DISL,ioos:station:DISL:MHPA:1,2019-09-11T13:30:00Z,30.6671,-87.9365,1.446,2.88,11111222 
DISL,ioos:station:DISL:MHPA:1,2019-09-11T14:30:00Z,30.6671,-87.9365,1.476,2.88,11111222 
DISL,ioos:station:DISL:MHPA:1,2019-09-11T15:30:00Z,30.6671,-87.9365,1.485,2.77,11111222 
DISL,ioos:station:DISL:MHPA:1,2019-09-11T16:30:00Z,30.6671,-87.9365,1.502,2.85,11111222 
DISL,ioos:station:DISL:MHPA:1,2019-09-11T17:30:00Z,30.6671,-87.9365,1.432,2.9,11111222 
DISL,ioos:station:DISL:MHPA:1,2019-09-11T18:30:00Z,30.6671,-87.9365,1.377,3.04,11111222 
DISL,ioos:station:DISL:MHPA:1,2019-09-11T19:30:00Z,30.6671,-87.9365,1.333,3.17,11111222 
DISL,ioos:station:DISL:MHPA:1,2019-09-11T20:30:00Z,30.6671,-87.9365,1.232,3.04,11111222 
DISL,ioos:station:DISL:MHPA:1,2019-09-11T21:30:00Z,30.6671,-87.9365,1.142,2.74,11111222 
DISL,ioos:station:DISL:MHPA:1,2019-09-11T22:30:00Z,30.6671,-87.9365,1.125,2.81,11111222 
DISL,ioos:station:DISL:MHPA:1,2019-09-11T23:30:00Z,30.6671,-87.9365,1.091,2.73,11111222 
DISL,ioos:station:DISL:MHPA:1,2019-09-12T00:30:00Z,30.6671,-87.9365,1.057,2.84,11111222 
DISL,ioos:station:DISL:MHPA:1,2019-09-12T01:30:00Z,30.6671,-87.9365,1.059,3.01,11111222 
DISL,ioos:station:DISL:MHPA:1,2019-09-12T02:30:00Z,30.6671,-87.9365,1.071,3.17,11111222 
DISL,ioos:station:DISL:MHPA:1,2019-09-12T03:30:00Z,30.6671,-87.9365,1.121,3.2,11111222 
DISL,ioos:station:DISL:MHPA:1,2019-09-12T04:30:00Z,30.6671,-87.9365,1.155,3.13,11111222 
DISL,ioos:station:DISL:MHPA:1,2019-09-12T05:30:00Z,30.6671,-87.9365,1.19,3.12,11111222 
DISL,ioos:station:DISL:MHPA:1,2019-09-12T06:30:00Z,30.6671,-87.9365,1.226,3.16,11111222 
DISL,ioos:station:DISL:MHPA:1,2019-09-12T07:30:00Z,30.6671,-87.9365,1.248,3.09,11111222 
DISL,ioos:station:DISL:MHPA:1,2019-09-12T08:30:00Z,30.6671,-87.9365,1.283,3.11,11111222 
DISL,ioos:station:DISL:MHPA:1,2019-09-12T09:30:00Z,30.6671,-87.9365,1.286,3.1,11111222 
DISL,ioos:station:DISL:MHPA:1,2019-09-12T10:30:00Z,30.6671,-87.9365,1.295,3.14,11111222 